This demonstration page uses our WeatherBlox Daily Observations layout. Learn more.

Left ArrowRight Arrow

Hourly Observations for May 26, 2021

Temp ( °F °C ) Dew Point ( °F °C ) Humidity (%) Winds ( mph kmh ) Pressure ( in mb ) Visibility ( mi km ) Precip ( " mm )
12:53 am 00:53 Partly Cloudy 72 22.2 64 17.8 76 76 Calm 30.16 1021 10 16 0.00 0.00
1:53 am 01:53 Clear 69 20.6 64 17.8 84 84 Calm 30.14 1021 10 16 0.00 0.00
2:53 am 02:53 Clear 67 19.4 64 17.8 91 91 Calm 30.14 1021 10 16 0.00 0.00
3:53 am 03:53 Clear 66 18.9 63 17.2 90 90 Calm 30.14 1021 10 16 0.00 0.00
4:53 am 04:53 Clear 65 18.3 63 17.2 93 93 Calm 30.14 1021 9 14 0.00 0.00
5:53 am 05:53 Clear 64 17.8 62 16.7 93 93 Calm 30.15 1021 8 13 0.00 0.00
6:53 am 06:53 Sunny 65 18.3 63 17.2 93 93 Calm 30.16 1021 8 13 0.00 0.00
7:53 am 07:53 Sunny 68 20 64 17.8 87 87 W 3 6 30.17 1022 8 13 0.00 0.00
8:53 am 08:53 Sunny 74 23.3 63 17.2 69 69 WSW 3 6 30.19 1022 10 16 0.00 0.00
9:53 am 09:53 Sunny 81 27.2 63 17.2 54 54 Calm 30.19 1023 10 16 0.00 0.00
10:53 am 10:53 Sunny 83 28.3 59 15 44 44 WNW 7 11 30.19 1022 10 16 0.00 0.00
11:53 am 11:53 Sunny 85 29.4 60 15.6 43 43 undefined N/A 30.19 1022 10 16 0.00 0.00
12:53 pm 12:53 Mostly Sunny 86 30 56 13.3 36 36 SW 13 20 30.18 1022 10 16 0.00 0.00
1:53 pm 13:53 Mostly Sunny 87 30.6 56 13.3 35 35 WSW 12 19 30.16 1021 10 16 0.00 0.00
2:53 pm 14:53 Mostly Sunny 87 30.6 54 12.2 32 32 SW 14 22 30.14 1021 10 16 0.00 0.00
3:53 pm 15:53 Sunny 88 31.1 55 12.8 33 33 SSW 13 20 30.11 1020 10 16 0.00 0.00
4:53 pm 16:53 Partly Cloudy 88 31.1 57 13.9 35 35 WSW 10 17 30.09 1019 10 16 0.00 0.00
5:53 pm 17:53 Mostly Sunny 87 30.6 56 13.3 35 35 SW 8 13 30.08 1019 10 16 0.00 0.00
6:53 pm 18:53 Mostly Sunny 87 30.6 56 13.3 35 35 WSW 6 9 30.07 1018 10 16 0.00 0.00
7:53 pm 19:53 Sunny 85 29.4 56 13.3 37 37 WSW 6 9 30.07 1018 10 16 0.00 0.00
8:53 pm 20:53 Clear 81 27.2 56 13.3 42 42 SW 5 7 30.09 1019 10 16 0.00 0.00
9:53 pm 21:53 Clear 79 26.1 56 13.3 45 45 SW 6 9 30.09 1019 10 16 0.00 0.00
10:53 pm 22:53 Clear 76 24.4 57 13.9 52 52 SW 3 6 30.10 1019 10 16 0.00 0.00
11:53 pm 23:53 Clear 71 21.7 59 15 66 66 Calm 30.10 1019 10 16 0.00 0.00

Powered by AerisWeather